Седкыркещ

Россия / Республика Коми     61°43′30″N   50°57′18″E
темп.,
°C
ветер,
м/с
пор.,
м/с
влажн.,
%
обл.,
%
осадки,
мм/ч
давл.,
гПа
погр.,
м
6 мая, чт
чт600:00+2з4996100 0.2 1000599
03:000зсз4886100 0.4 1003910
06:00+1з598193 0.0 1005932
09:00+4зсз695897 0.1 10061435
12:00+5з5849100 0.0 10091733
15:00+8з584078 0.0 10101804
18:00+8з254721 0.0 1010782
21:00+4ю2265100 0.0 101122
7 мая, пт
пт700:00+4юв2673100 0.0 1010126
03:00+5юв3992100 1.7 1008268
06:00+8ю4119078 0.0 1008403
09:00+12ююз51081100 0.0 1008809
12:00+13юз4972100 0.2 10081180
15:00+12юз3876100 0.4 1008889
18:00+8зюз3793100 1.7 1009536
21:00+7юз31090100 2.7 1011476
8 мая, сб
сб800:00+6юз310943 0.1 1013370
03:00+4юз310934 0.1 1016292
06:00+6юз38800 0.0 1017337
09:00+11юз36585 0.0 1018973
12:00+15юз464074 0.0 10182154
15:00+16ююз453647 0.0 10172140
18:00+15ююв484126 0.0 1016797
21:00+10юв41260100 0.0 1015308
9 мая, вс
вс900:00+10юв51461100 0.0 1014426
03:00+10юв5157599 0.0 1012561
06:00+13ююв61568100 0.0 1011967
09:00+18ююв71649100 0.0 10091996
12:00+16ю81764100 0.2 10092164
15:00+14ю81773100 0.4 10112022
18:00+10ююз61371100 0.8 1013911
21:00+9зюз5973100 0.9 10161122
10 мая, пн
пн1000:00+7з4774100 0.0 1018832
03:00+5з3676100 0.0 1021648
06:00+6з3570100 0.0 1023532
09:00+10зюз35496 0.0 10241382
12:00+13з46325 0.0 10232129
15:00+14зюз482997 0.0 10232783
18:00+13з483992 0.0 10232146
21:00+8з256485 0.0 1024203